When you browse on this site, cookies collect data to enhance your experience and personalize the content and advertising you see.
Visit our Privacy Policy to learn more. By continuing to use the site, you agree to this use of cookies and data.
  • In Czech Republic
  • List of Countries
  • For 7 days
  • Water Temperature
  • Weather Map
  • Weather Widgets
  • user-avatar
    Login

    Hourly Weather Prutz

    Today, 15 November, Friday

    Time Temperature Precipitation Wind Pressure Humidity
    00:00 -7°C° 0 mm 5 mps 620 mmHg 88%
    01:00 -6°C° 0 mm 5 mps 620 mmHg 89%
    02:00 -6°C° 0.2 mm 5 mps 619 mmHg 89%
    03:00 -5°C° 0.2 mm 5 mps 619 mmHg 89%
    04:00 -4°C° 0.2 mm 5 mps 619 mmHg 89%
    05:00 -4°C° 0.6 mm 5 mps 618 mmHg 90%
    06:00 -4°C° 0.6 mm 5 mps 618 mmHg 90%
    07:00 -2°C° 0.6 mm 5 mps 618 mmHg 90%
    08:00 -2°C° 1.6 mm 4 mps 619 mmHg 92%
    09:00 -1°C° 1.6 mm 4 mps 620 mmHg 94%
    10:00 +1°C° 1.6 mm 3 mps 620 mmHg 96%
    11:00 +1°C° 1.6 mm 3 mps 621 mmHg 96%
    12:00 +2°C° 1.6 mm 2 mps 621 mmHg 97%
    13:00 +2°C° 1.6 mm 2 mps 622 mmHg 97%
    14:00 +3°C° 1.5 mm 1 mps 622 mmHg 97%
    15:00 +3°C° 1.5 mm 1 mps 622 mmHg 98%
    16:00 +2°C° 1.5 mm 1 mps 622 mmHg 98%
    17:00 +2°C° 2 mm 1 mps 621 mmHg 98%
    18:00 +1°C° 2 mm 1 mps 621 mmHg 97%
    19:00 +1°C° 2 mm 1 mps 621 mmHg 97%
    20:00 0°C° 1 mm 1 mps 621 mmHg 97%
    21:00 0°C° 1 mm 1 mps 621 mmHg 97%
    22:00 0°C° 1 mm 1 mps 621 mmHg 97%
    23:00 -1°C° 0.6 mm 1 mps 622 mmHg 96%

    Tomorrow, 16 November, Saturday

    Time Temperature Precipitation Wind Pressure Humidity
    00:00 -3°C° 0.6 mm 2 mps 622 mmHg 95%
    01:00 -3°C° 0.6 mm 2 mps 622 mmHg 94%
    02:00 -4°C° 0.2 mm 2 mps 622 mmHg 93%
    03:00 -4°C° 0.2 mm 2 mps 622 mmHg 92%
    04:00 -5°C° 0.2 mm 2 mps 622 mmHg 90%
    05:00 -6°C° 0.1 mm 3 mps 622 mmHg 90%
    06:00 -5°C° 0.1 mm 3 mps 623 mmHg 90%
    07:00 -5°C° 0.1 mm 3 mps 623 mmHg 90%
    08:00 -4°C° 0.1 mm 3 mps 624 mmHg 90%
    09:00 -2°C° 0.1 mm 3 mps 625 mmHg 90%
    10:00 -1°C° 0.1 mm 3 mps 626 mmHg 91%
    11:00 -1°C° 0 mm 3 mps 626 mmHg 90%
    12:00 0°C° 0 mm 3 mps 627 mmHg 90%
    13:00 0°C° 0 mm 3 mps 627 mmHg 90%
    14:00 -1°C° 0 mm 3 mps 627 mmHg 89%
    15:00 -2°C° 0 mm 3 mps 626 mmHg 89%
    16:00 -3°C° 0 mm 2 mps 626 mmHg 88%
    17:00 -4°C° 0 mm 3 mps 626 mmHg 87%
    18:00 -5°C° 0 mm 3 mps 626 mmHg 85%
    19:00 -6°C° 0 mm 3 mps 626 mmHg 83%
    20:00 -4°C° 0.1 mm 2 mps 626 mmHg 83%
    21:00 -4°C° 0.1 mm 2 mps 626 mmHg 83%
    22:00 -4°C° 0.1 mm 2 mps 626 mmHg 83%
    23:00 -4°C° 0.3 mm 2 mps 625 mmHg 86%

    Day after tomorrow, 17 November, Sunday

    Time Temperature Precipitation Wind Pressure Humidity
    00:00 -2°C° 0.3 mm 1 mps 625 mmHg 89%
    01:00 -2°C° 0.3 mm 1 mps 624 mmHg 92%
    02:00 -1°C° 1.9 mm 1 mps 624 mmHg 93%
    03:00 -1°C° 1.9 mm 1 mps 623 mmHg 95%
    04:00 -2°C° 1.9 mm 0 mps 623 mmHg 97%
    05:00 -2°C° 3.7 mm 0 mps 622 mmHg 97%
    06:00 -2°C° 3.7 mm 0 mps 622 mmHg 97%
    07:00 -2°C° 3.7 mm 0 mps 621 mmHg 97%
    08:00 0°C° 4.6 mm 1 mps 621 mmHg 97%
    09:00 0°C° 4.6 mm 1 mps 621 mmHg 97%
    10:00 +1°C° 4.6 mm 1 mps 620 mmHg 97%
    11:00 -1°C° 2.7 mm 2 mps 620 mmHg 97%
    12:00 +1°C° 2.7 mm 2 mps 620 mmHg 98%
    13:00 +2°C° 2.7 mm 2 mps 620 mmHg 98%
    14:00 +2°C° 1.6 mm 2 mps 620 mmHg 98%
    15:00 +2°C° 1.6 mm 2 mps 620 mmHg 98%
    16:00 +2°C° 1.6 mm 2 mps 620 mmHg 97%
    17:00 +1°C° 0.4 mm 2 mps 620 mmHg 97%
    18:00 +1°C° 0.4 mm 2 mps 620 mmHg 96%
    19:00 -1°C° 0.4 mm 2 mps 620 mmHg 95%
    20:00 -1°C° 0.2 mm 2 mps 621 mmHg 94%
    21:00 -2°C° 0.2 mm 2 mps 621 mmHg 93%
    22:00 -2°C° 0.2 mm 2 mps 621 mmHg 92%
    23:00 -3°C° 0.2 mm 2 mps 622 mmHg 92%

    18 November, Monday

    Time Temperature Precipitation Wind Pressure Humidity
    00:00 -4°C° 0.2 mm 3 mps 622 mmHg 92%
    01:00 -5°C° 0.2 mm 3 mps 622 mmHg 92%
    02:00 -6°C° 0 mm 3 mps 622 mmHg 92%
    03:00 -7°C° 0 mm 3 mps 622 mmHg 91%
    04:00 -8°C° 0 mm 3 mps 622 mmHg 91%
    05:00 -8°C° 0.1 mm 3 mps 622 mmHg 91%
    06:00 -8°C° 0.1 mm 3 mps 623 mmHg 90%
    07:00 -8°C° 0.1 mm 3 mps 623 mmHg 89%
    08:00 -6°C° 0.2 mm 2 mps 624 mmHg 89%
    09:00 -5°C° 0.2 mm 2 mps 624 mmHg 89%
    10:00 -4°C° 0.2 mm 2 mps 625 mmHg 89%
    11:00 -3°C° 0.1 mm 2 mps 626 mmHg 87%
    12:00 -2°C° 0.1 mm 2 mps 626 mmHg 86%
    13:00 -1°C° 0.1 mm 2 mps 627 mmHg 85%
    14:00 -2°C° 0 mm 2 mps 626 mmHg 87%
    15:00 -3°C° 0 mm 2 mps 626 mmHg 90%
    16:00 -4°C° 0 mm 2 mps 626 mmHg 93%
    17:00 -5°C° 0.1 mm 2 mps 626 mmHg 92%
    18:00 -6°C° 0.1 mm 2 mps 627 mmHg 91%
    19:00 -8°C° 0.1 mm 2 mps 627 mmHg 90%
    20:00 -8°C° 0 mm 2 mps 627 mmHg 90%
    21:00 -8°C° 0 mm 2 mps 627 mmHg 89%
    22:00 -9°C° 0 mm 2 mps 627 mmHg 88%
    23:00 -9°C° 0 mm 2 mps 627 mmHg 87%

    19 November, Tuesday

    Time Temperature Precipitation Wind Pressure Humidity
    00:00 -9°C° 0 mm 2 mps 627 mmHg 87%
    01:00 -8°C° 0 mm 2 mps 627 mmHg 86%
    02:00 -8°C° 0 mm 2 mps 627 mmHg 85%
    03:00 -7°C° 0 mm 1 mps 627 mmHg 83%
    04:00 -7°C° 0 mm 1 mps 627 mmHg 81%
    05:00 -8°C° 0 mm 1 mps 627 mmHg 80%
    06:00 -8°C° 0 mm 1 mps 627 mmHg 80%
    07:00 -8°C° 0 mm 1 mps 627 mmHg 79%
    08:00 -7°C° 0 mm 1 mps 628 mmHg 80%
    09:00 -4°C° 0 mm 1 mps 629 mmHg 81%
    10:00 -3°C° 0 mm 0 mps 629 mmHg 82%
    11:00 -2°C° 0 mm 0 mps 629 mmHg 83%
    12:00 -1°C° 0 mm 0 mps 629 mmHg 83%
    13:00 0°C° 0 mm 0 mps 629 mmHg 83%
    14:00 -1°C° 0 mm 0 mps 629 mmHg 87%
    15:00 -2°C° 0 mm 0 mps 628 mmHg 91%
    16:00 -3°C° 0 mm 0 mps 628 mmHg 95%
    17:00 -3°C° 0 mm 1 mps 627 mmHg 94%
    18:00 -4°C° 0 mm 1 mps 627 mmHg 94%
    19:00 -6°C° 0 mm 1 mps 627 mmHg 93%
    20:00 -4°C° 0 mm 1 mps 627 mmHg 92%
    21:00 -4°C° 0 mm 1 mps 627 mmHg 90%
    22:00 -6°C° 0 mm 2 mps 628 mmHg 89%
    23:00 -6°C° 0 mm 2 mps 627 mmHg 88%

    20 November, Wednesday

    Time Temperature Precipitation Wind Pressure Humidity
    00:00 -6°C° 0 mm 2 mps 627 mmHg 88%
    01:00 -6°C° 0 mm 2 mps 627 mmHg 87%
    02:00 -6°C° 0 mm 2 mps 627 mmHg 87%
    03:00 -6°C° 0 mm 2 mps 627 mmHg 88%
    04:00 -6°C° 0 mm 2 mps 627 mmHg 88%
    05:00 -6°C° 0 mm 2 mps 627 mmHg 87%
    06:00 -6°C° 0 mm 2 mps 627 mmHg 87%
    07:00 -6°C° 0 mm 2 mps 627 mmHg 87%
    08:00 -4°C° 0 mm 2 mps 628 mmHg 88%
    09:00 -3°C° 0 mm 2 mps 628 mmHg 89%
    10:00 -1°C° 0 mm 2 mps 629 mmHg 90%
    11:00 -1°C° 0 mm 2 mps 629 mmHg 91%
    12:00 +1°C° 0 mm 2 mps 629 mmHg 92%
    13:00 +2°C° 0 mm 2 mps 629 mmHg 93%
    14:00 +1°C° 0 mm 2 mps 628 mmHg 92%
    15:00 -1°C° 0 mm 2 mps 628 mmHg 91%
    16:00 -2°C° 0 mm 2 mps 628 mmHg 91%
    17:00 -4°C° 0 mm 3 mps 627 mmHg 90%
    18:00 -5°C° 0 mm 3 mps 627 mmHg 89%
    19:00 -6°C° 0 mm 3 mps 627 mmHg 89%
    20:00 -6°C° 0 mm 3 mps 627 mmHg 86%
    21:00 -7°C° 0 mm 3 mps 627 mmHg 83%
    22:00 -7°C° 0 mm 3 mps 627 mmHg 80%
    23:00 -6°C° 0 mm 3 mps 627 mmHg 80%
    Show more